Weather observations for the past three days for
Manchester Airport
Imperial (Metric)
Date Time (edt) Wind (mph) Vis. (mi.) Weather Sky Cond. Temperature (ºF) Relative Humidity Wind Chill (°F) Heat Index (°F) Pressure Precipitation (in)
Air Dwpt 6 hour altimeter (in) sea level (mb) 1 hr 3 hr 6 hr
Max. Min.
19 02:53 S 3 10.00 A Few Clouds FEW250 75.9 70 82% 77 30.22 1023.9
19 01:53 S 5 10.00 A Few Clouds FEW250 78.1 70 90 77 76% 80 30.21 1023.8
19 00:53 S 6 10.00 A Few Clouds FEW250 80.1 70 71% 83 30.21 1023.8
18 23:53 S 6 10.00 A Few Clouds FEW250 82 69.1 65% 85 30.21 1023.7
18 22:53 S 6 10.00 A Few Clouds FEW250 84 69.1 61% 88 30.2 1023.3
18 21:53 S 5 10.00 A Few Clouds FEW140 86 69.1 57% 90 30.19 1023.1
18 20:53 S 7 10.00 Partly Cloudy FEW065 SCT250 88 69.1 54% 92 30.18 1022.7
18 19:53 S 7 10.00 Mostly Cloudy FEW070 BKN250 90 68 97 90 48% 94 30.15 1021.9
18 18:53 S 7 10.00 Mostly Cloudy FEW065 BKN250 93 66.9 42% 97 30.14 1021.4
18 17:53 S 9 10.00 Partly Cloudy FEW060 SCT250 93.9 64.9 38% 96 30.14 1021.4
18 16:53 SW 9 10.00 Partly Cloudy FEW060 SCT250 95 66.9 40% 99 30.15 1021.7
18 15:53 S 9 10.00 Partly Cloudy SCT055 96.1 68 40% 101 30.15 1021.8
18 14:53 SW 8 G 20 10.00 A Few Clouds FEW055 96.1 68 40% 101 30.15 1021.8
18 13:53 S 9 10.00 Partly Cloudy FEW060 SCT250 93.9 66.9 93.9 72 41% 98 30.16 1022.2
18 12:53 SW 8 10.00 Partly Cloudy FEW050 SCT250 93 66.9 42% 97 30.18 1022.6
18 11:53 SE 5 10.00 Mostly Cloudy FEW045 BKN250 90 69.1 50% 95 30.19 1023.0
18 10:53 Calm 10.00 Mostly Cloudy FEW100 BKN250 86 66.9 53% 89 30.2 1023.4
18 09:53 Calm 10.00 Mostly Cloudy FEW100 BKN250 81 64.9 58% 83 30.2 1023.4
18 08:53 Calm 10.00 Mostly Cloudy BKN100 BKN250 75 63 66% 77 30.2 1023.6
18 07:53 Calm 10.00 Mostly Cloudy BKN100 BKN250 72 62.1 72 66.9 71% 30.19 1023.3
18 06:53 Calm 10.00 Mostly Cloudy FEW110 BKN250 70 61 73% 30.18 1022.8
18 05:53 Calm 10.00 Mostly Cloudy FEW100 SCT200 BKN250 66.9 60.1 79% 30.16 1022.1
18 04:53 S 3 10.00 Partly Cloudy FEW090 SCT250 66.9 60.1 79% 30.13 1021.3
18 03:53 Calm 10.00 Partly Cloudy FEW085 SCT250 69.1 60.1 73% 30.12 1020.8
18 02:53 S 5 10.00 A Few Clouds FEW250 69.1 60.1 73% 30.11 1020.6
18 01:53 SE 5 10.00 A Few Clouds FEW250 70 61 80.1 70 73% 30.11 1020.5
18 00:53 S 7 10.00 A Few Clouds FEW250 71.1 61 71% 30.11 1020.6
17 23:53 S 6 10.00 A Few Clouds FEW250 71.1 61 71% 30.11 1020.7
17 22:53 S 7 10.00 Partly Cloudy SCT250 73 61 66% 30.11 1020.5
17 21:53 S 8 10.00 Mostly Cloudy BKN250 75 60.1 60% 77 30.11 1020.6
17 20:53 S 10 10.00 Mostly Cloudy BKN250 77 61 58% 79 30.11 1020.4
17 19:53 S 13 10.00 Mostly Cloudy BKN250 80.1 63 84.9 80.1 56% 81 30.1 1020.1
17 18:53 SW 8 10.00 Mostly Cloudy BKN250 82.9 64 53% 84 30.08 1019.5
17 17:53 SW 13 G 23 10.00 Mostly Cloudy FEW045 BKN250 84 63 49% 85 30.07 1019.2
17 16:53 S 10 10.00 Mostly Cloudy SCT047 SCT150 BKN250 84 63 49% 85 30.07 1019.2
17 15:53 S 13 10.00 Mostly Cloudy FEW045 SCT150 BKN250 84 62.1 48% 85 30.07 1019.3
17 14:53 S 14 10.00 Mostly Cloudy FEW070 SCT150 BKN200 84 61 46% 84 30.08 1019.5
17 13:53 S 13 G 21 10.00 Mostly Cloudy FEW070 BKN150 82 59 82 66 46% 82 30.09 1019.9
17 12:53 S 14 G 18 10.00 Mostly Cloudy FEW070 SCT150 BKN200 81 57.9 45% 81 30.11 1020.6
17 11:53 S 15 G 23 10.00 Mostly Cloudy FEW070 BKN200 80.1 57.9 47% 81 30.11 1020.3
17 10:53 S 15 10.00 Partly Cloudy SCT070 SCT200 77 57 50% 79 30.14 1021.7
17 09:53 S 10 G 20 10.00 Mostly Cloudy BKN070 BKN200 73 55.9 55% 30.17 1022.7
17 08:53 SW 9 10.00 Mostly Cloudy BKN110 BKN200 70 55 59% 30.19 1023.3
17 07:53 S 8 10.00 Mostly Cloudy FEW150 BKN200 66 55 66 60.1 68% 30.19 1023.5
17 06:53 S 8 10.00 Mostly Cloudy FEW150 BKN200 62.1 54 75% 30.2 1023.7
17 05:53 S 9 10.00 Mostly Cloudy FEW150 BKN230 61 53.1 75% 30.19 1023.3
17 04:53 S 7 10.00 Mostly Cloudy SCT150 BKN200 60.1 52 75% 30.2 1023.7
17 03:53 S 9 10.00 Overcast OVC150 62.1 53.1 73% 30.19 1023.4
17 02:53 S 9 10.00 Overcast OVC140 63 52 68% 30.19 1023.3
17 01:53 S 10 10.00 Mostly Cloudy BKN150 BKN200 64 52 69.1 63 65% 30.19 1023.3
17 00:53 S 9 10.00 Mostly Cloudy BKN150 64 51.1 63% 30.19 1023.2
16 23:53 S 12 10.00 Mostly Cloudy BKN150 64.9 48.9 56% 30.18 1023.0
16 22:53 S 7 10.00 Mostly Cloudy BKN150 63 46.9 56% 30.19 1023.4
16 21:53 SE 5 10.00 Mostly Cloudy BKN200 63 46 54% 30.2 1023.7
16 20:53 SE 13 10.00 Mostly Cloudy BKN200 BKN250 66 46 49% 30.2 1023.6
16 19:53 SE 9 10.00 Mostly Cloudy BKN200 BKN250 69.1 48 77 69.1 47% 30.19 1023.3
16 18:53 SE 6 10.00 Overcast SCT200 OVC250 72 45 38% 30.18 1023.1
16 17:53 SW 3 10.00 Mostly Cloudy BKN250 73.9 43 33% 30.18 1023.3
16 16:53 Calm 10.00 Mostly Cloudy BKN250 73.9 41 31% 30.19 1023.4
16 15:53 Calm 10.00 Mostly Cloudy BKN250 73.9 41 31% 30.19 1023.7
16 14:53 W 8 10.00 Mostly Cloudy FEW200 BKN250 75 39.9 28% 77 30.21 1024.1
16 13:53 S 6 10.00 Mostly Cloudy BKN200 73 39.9 73.9 60.1 30% 30.22 1024.3
16 12:53 Calm 10.00 Mostly Cloudy BKN200 72 39.9 31% 30.24 1025.2
16 11:53 Calm 10.00 Mostly Cloudy BKN200 71.1 39 31% 30.26 1025.7
16 10:53 NW 5 10.00 Partly Cloudy SCT200 69.1 39 33% 30.27 1026.1
16 09:53 SE 3 10.00 Partly Cloudy SCT200 66 41 40% 30.26 1025.9
16 08:53 Vrbl 3 10.00 Fair CLR 64 42.1 45% 30.27 1026.3
16 07:53 N 5 10.00 Fair CLR 60.1 43 60.1 46 53% 30.26 1026.0
16 06:53 N 8 10.00 A Few Clouds FEW001 55 43 64% 30.25 1025.6
16 05:53 Calm 10.00 Fair CLR 46.9 43 86% 30.22 1024.6
16 04:53 Calm 10.00 Fair CLR 46.9 43 86% 30.19 1023.7
16 03:53 Calm 10.00 Fair CLR 48.9 43 80% 30.17 1022.8
Date Time (edt) Wind (mph) Vis. (mi.) Weather Sky Cond. Air Dwpt Max. Min. Relative Humidity Wind Chill (°F) Heat Index (°F) altimeter (in) sea level (mb) 1 hr 3 hr 6 hr
6 hour
Temperature (ºF) Pressure Precipitation (in)